Stündliche Wetter La Cañada

Heute, 10 Mai, Montag

Zeit Temperatur Niederschläge Wind Luftdruck Luftfeuchtigkeit
00:00 +17°C° 0 mm 2 m/S 604 mmHg 76%
01:00 +17°C° 0 mm 2 m/S 604 mmHg 77%
02:00 +17°C° 0 mm 2 m/S 604 mmHg 78%
03:00 +18°C° 0 mm 1 m/S 603 mmHg 79%
04:00 +16°C° 0 mm 1 m/S 603 mmHg 81%
05:00 +15°C° 0 mm 0 m/S 603 mmHg 83%
06:00 +18°C° 0 mm 1 m/S 604 mmHg 74%
07:00 +20°C° 0 mm 1 m/S 604 mmHg 65%
08:00 +21°C° 0 mm 1 m/S 605 mmHg 57%
09:00 +23°C° 0 mm 1 m/S 605 mmHg 49%
10:00 +25°C° 0 mm 1 m/S 605 mmHg 41%
11:00 +26°C° 0 mm 1 m/S 606 mmHg 33%
12:00 +27°C° 0 mm 1 m/S 605 mmHg 30%
13:00 +28°C° 0 mm 2 m/S 605 mmHg 27%
14:00 +29°C° 0 mm 2 m/S 604 mmHg 25%
15:00 +29°C° 0 mm 2 m/S 604 mmHg 26%
16:00 +28°C° 0 mm 2 m/S 604 mmHg 26%
17:00 +28°C° 0 mm 2 m/S 604 mmHg 27%
18:00 +27°C° 0 mm 2 m/S 604 mmHg 33%
19:00 +26°C° 0 mm 2 m/S 604 mmHg 39%
20:00 +25°C° 0 mm 3 m/S 604 mmHg 45%
21:00 +24°C° 0.4 mm 2 m/S 604 mmHg 50%
22:00 +24°C° 0.4 mm 2 m/S 604 mmHg 55%
23:00 +23°C° 0.4 mm 2 m/S 604 mmHg 60%

Morgen, 11 Mai, Dienstag

Zeit Temperatur Niederschläge Wind Luftdruck Luftfeuchtigkeit
00:00 +21°C° 1 mm 2 m/S 604 mmHg 64%
01:00 +21°C° 1 mm 1 m/S 603 mmHg 67%
02:00 +20°C° 1 mm 1 m/S 603 mmHg 71%
03:00 +20°C° 0.9 mm 1 m/S 603 mmHg 72%
04:00 +20°C° 0.9 mm 1 m/S 603 mmHg 73%
05:00 +20°C° 0.9 mm 1 m/S 603 mmHg 74%
06:00 +20°C° 0.4 mm 1 m/S 604 mmHg 70%
07:00 +21°C° 0.4 mm 1 m/S 604 mmHg 66%
08:00 +22°C° 0.4 mm 1 m/S 605 mmHg 62%
09:00 +23°C° 0.3 mm 1 m/S 605 mmHg 58%
10:00 +24°C° 0.3 mm 1 m/S 605 mmHg 54%
11:00 +25°C° 0.3 mm 1 m/S 605 mmHg 50%
12:00 +25°C° 0.2 mm 1 m/S 604 mmHg 47%
13:00 +26°C° 0.2 mm 1 m/S 604 mmHg 44%
14:00 +27°C° 0.2 mm 1 m/S 604 mmHg 42%
15:00 +26°C° 0.1 mm 1 m/S 604 mmHg 43%
16:00 +26°C° 0.1 mm 1 m/S 603 mmHg 45%
17:00 +26°C° 0.1 mm 2 m/S 603 mmHg 47%
18:00 +24°C° 0.8 mm 2 m/S 603 mmHg 56%
19:00 +23°C° 0.8 mm 2 m/S 604 mmHg 64%
20:00 +20°C° 0.8 mm 2 m/S 604 mmHg 73%
21:00 +19°C° 1 mm 2 m/S 604 mmHg 76%
22:00 +19°C° 1 mm 2 m/S 604 mmHg 78%
23:00 +18°C° 1 mm 2 m/S 604 mmHg 80%

übermorgen, 12 Mai, Mittwoch

Zeit Temperatur Niederschläge Wind Luftdruck Luftfeuchtigkeit
00:00 +18°C° 0.3 mm 2 m/S 604 mmHg 79%
01:00 +19°C° 0.3 mm 1 m/S 604 mmHg 78%
02:00 +19°C° 0.3 mm 1 m/S 603 mmHg 76%
03:00 +19°C° 0.1 mm 1 m/S 604 mmHg 77%
04:00 +19°C° 0.1 mm 1 m/S 604 mmHg 78%
05:00 +19°C° 0.1 mm 1 m/S 604 mmHg 78%
06:00 +20°C° 0 mm 1 m/S 604 mmHg 72%
07:00 +21°C° 0 mm 1 m/S 605 mmHg 66%
08:00 +22°C° 0 mm 1 m/S 605 mmHg 60%
09:00 +24°C° 0.1 mm 2 m/S 606 mmHg 54%
10:00 +25°C° 0.1 mm 2 m/S 606 mmHg 48%
11:00 +27°C° 0.1 mm 2 m/S 606 mmHg 42%
12:00 +26°C° 0.2 mm 3 m/S 605 mmHg 45%
13:00 +25°C° 0.2 mm 3 m/S 605 mmHg 47%
14:00 +25°C° 0.2 mm 4 m/S 604 mmHg 50%
15:00 +25°C° 0.1 mm 3 m/S 604 mmHg 50%
16:00 +25°C° 0.1 mm 2 m/S 604 mmHg 50%
17:00 +24°C° 0.1 mm 1 m/S 604 mmHg 50%
18:00 +23°C° 0.5 mm 1 m/S 604 mmHg 57%
19:00 +21°C° 0.5 mm 2 m/S 604 mmHg 64%
20:00 +20°C° 0.5 mm 2 m/S 605 mmHg 71%
21:00 +19°C° 1 mm 2 m/S 605 mmHg 73%
22:00 +19°C° 1 mm 3 m/S 605 mmHg 75%
23:00 +18°C° 1 mm 3 m/S 605 mmHg 77%

13 Mai, Donnerstag

Zeit Temperatur Niederschläge Wind Luftdruck Luftfeuchtigkeit
00:00 +18°C° 0.3 mm 3 m/S 605 mmHg 78%
01:00 +18°C° 0.3 mm 3 m/S 605 mmHg 79%
02:00 +17°C° 0.3 mm 3 m/S 605 mmHg 80%
03:00 +17°C° 0.1 mm 3 m/S 605 mmHg 80%
04:00 +17°C° 0.1 mm 3 m/S 605 mmHg 81%
05:00 +17°C° 0.1 mm 3 m/S 605 mmHg 82%
06:00 +18°C° 0 mm 4 m/S 606 mmHg 77%
07:00 +18°C° 0 mm 4 m/S 606 mmHg 73%
08:00 +19°C° 0 mm 4 m/S 607 mmHg 68%
09:00 +20°C° 0.1 mm 5 m/S 607 mmHg 63%
10:00 +21°C° 0.1 mm 5 m/S 607 mmHg 59%
11:00 +22°C° 0.1 mm 5 m/S 607 mmHg 54%
12:00 +22°C° 0 mm 6 m/S 607 mmHg 54%
13:00 +22°C° 0 mm 6 m/S 606 mmHg 54%
14:00 +22°C° 0 mm 6 m/S 606 mmHg 54%
15:00 +21°C° 0 mm 6 m/S 606 mmHg 56%
16:00 +20°C° 0 mm 7 m/S 606 mmHg 58%
17:00 +20°C° 0 mm 7 m/S 605 mmHg 60%
18:00 +19°C° 0 mm 6 m/S 606 mmHg 64%
19:00 +17°C° 0 mm 5 m/S 606 mmHg 67%
20:00 +17°C° 0 mm 4 m/S 606 mmHg 71%
21:00 +17°C° 0 mm 4 m/S 606 mmHg 73%
22:00 +16°C° 0 mm 3 m/S 606 mmHg 75%
23:00 +16°C° 0 mm 3 m/S 606 mmHg 77%

14 Mai, Freitag

Zeit Temperatur Niederschläge Wind Luftdruck Luftfeuchtigkeit
00:00 +16°C° 0 mm 3 m/S 606 mmHg 79%
01:00 +14°C° 0 mm 3 m/S 605 mmHg 81%
02:00 +14°C° 0 mm 3 m/S 605 mmHg 82%
03:00 +14°C° 0 mm 3 m/S 605 mmHg 82%
04:00 +14°C° 0 mm 3 m/S 605 mmHg 82%
05:00 +14°C° 0 mm 3 m/S 605 mmHg 82%
06:00 +16°C° 0 mm 3 m/S 605 mmHg 77%
07:00 +17°C° 0 mm 3 m/S 606 mmHg 71%
08:00 +18°C° 0 mm 4 m/S 606 mmHg 66%
09:00 +18°C° 0 mm 4 m/S 607 mmHg 63%
10:00 +19°C° 0 mm 4 m/S 607 mmHg 61%
11:00 +20°C° 0 mm 4 m/S 607 mmHg 59%
12:00 +21°C° 0 mm 4 m/S 606 mmHg 53%
13:00 +23°C° 0 mm 4 m/S 606 mmHg 48%
14:00 +25°C° 0 mm 4 m/S 606 mmHg 43%
15:00 +25°C° 0 mm 5 m/S 606 mmHg 45%
16:00 +23°C° 0 mm 5 m/S 605 mmHg 46%
17:00 +23°C° 0 mm 5 m/S 605 mmHg 48%
18:00 +21°C° 0 mm 5 m/S 605 mmHg 56%
19:00 +20°C° 0 mm 4 m/S 605 mmHg 63%
20:00 +18°C° 0 mm 4 m/S 605 mmHg 70%
21:00 +18°C° 0 mm 3 m/S 605 mmHg 73%
22:00 +17°C° 0 mm 3 m/S 605 mmHg 75%
23:00 +17°C° 0 mm 3 m/S 605 mmHg 78%

15 Mai, Samstag

Zeit Temperatur Niederschläge Wind Luftdruck Luftfeuchtigkeit
00:00 +16°C° 0 mm 3 m/S 605 mmHg 78%
01:00 +16°C° 0 mm 2 m/S 604 mmHg 79%
02:00 +16°C° 0 mm 2 m/S 604 mmHg 80%
03:00 +16°C° 0 mm 2 m/S 604 mmHg 80%
04:00 +15°C° 0 mm 1 m/S 604 mmHg 81%
05:00 +15°C° 0 mm 1 m/S 604 mmHg 81%
06:00 +18°C° 0 mm 1 m/S 604 mmHg 75%
07:00 +19°C° 0 mm 1 m/S 605 mmHg 68%
08:00 +21°C° 0 mm 1 m/S 606 mmHg 62%
09:00 +22°C° 0.2 mm 1 m/S 606 mmHg 55%
10:00 +24°C° 0.2 mm 1 m/S 606 mmHg 49%
11:00 +26°C° 0.2 mm 1 m/S 606 mmHg 43%
12:00 +26°C° 0.2 mm 2 m/S 605 mmHg 42%
13:00 +26°C° 0.2 mm 2 m/S 605 mmHg 41%
14:00 +26°C° 0.2 mm 3 m/S 604 mmHg 40%
15:00 +26°C° 0.1 mm 2 m/S 604 mmHg 42%
16:00 +25°C° 0.1 mm 2 m/S 604 mmHg 45%
17:00 +25°C° 0.1 mm 1 m/S 604 mmHg 47%
18:00 +24°C° 0.3 mm 1 m/S 604 mmHg 54%
19:00 +21°C° 0.3 mm 2 m/S 604 mmHg 61%
20:00 +20°C° 0.3 mm 2 m/S 604 mmHg 68%
21:00 +19°C° 0.5 mm 2 m/S 604 mmHg 69%
22:00 +19°C° 0.5 mm 2 m/S 604 mmHg 71%
23:00 +20°C° 0.5 mm 1 m/S 604 mmHg 72%
Mehr zeigen

Wir brauchen deine Erlaubnis

Meteoprog und unser Service Anbieter werden persönliche Daten aufbewahren, so wie Cookies, Geräte Bezeichnung oder ähnliche Technologien von deinem Gerät und Prozess, so wie Persönliche Daten Inhalte und Werbungen, genauso wie social Media und den Verkehr zu analysieren.

  • Aufbewahrung und/oder Zugang zu deiner Geräte Informationen.

    Cookies, Geräte Bezeichnung oder andere Informationen, können aufbewahrt oder Zugang zu deinem Gerät erhalten, für den Grund, der oben angegeben wird.

  • Personalisierte Werbung und Inhalte, Messungen, Einblick in das Publikum und Produkt Entwicklung.

    Werbungen und Inhalte können personalisiert werden, basierend auf ein Profil. Mehr Daten können besser personalisierte Werbungen und Inhalte hinzufügen. Werbung und Inhalte können gezeigt und gemessen werden. Einblicke über das Publikum, welche die Werbung gesehen haben und den Inhalt, können abgeleitet werden. So wie Daten können genutzt werden, um es zu verbessern oder die Benutzer Erfahrung zu verbessern das System und die Software.

Wenn du “Ich stimme zu” klickst, erlaubst du uns, die Cookies zu benutzen die Geräte Bezeichnung, den Web oder ähnliche Technologien zu benutzen. Deine Settings, können in deinem Gerät bei deinem Browser geändert werden.

Für den bestimmten Zweck, berechtigten Interessen beruhen darauf, mehr als auf den Inhalt. Du kannst mehr darüber in unseren Privaten und Cookie Politik lesen.